Theta_e
291 293 293 293 292 292 292 292 293 292 294 296 295 294 294 299 290 288 293 295 291 293 296 296 297 299 300 300 301 303 304 304 304 304 303 303 303 304 304 304 305 305 305 306 306 307 307 308 308 308 308 310 311 313 315 318 321 322 324 324 324 324 324 325 326 326 327 327 326 326 325 326 326 326 326 327 326 325 325 325 326 325 325 324 323 322 323
290 291 291 293 293 292 292 292 292 293 295 295 295 294 296 297 295 296 295 293 291 294 295 295 296 299 300 300 302 302 301 301 301 301 301 301 301 302 302 303 304 304 304 305 305 306 306 306 307 306 307 307 308 308 310 312 316 320 323 323 323 323 323 324 325 325 326 327 327 326 325 325 325 326 324 325 325 324 324 323 325 325 325 324 323 324 323
289 291 292 292 292 292 291 292 293 294 294 294 295 295 296 296 294 293 292 288 288 294 297 297 298 300 300 299 298 298 299 299 299 298 298 299 299 300 300 301 301 302 303 304 304 304 304 305 306 306 307 307 308 308 308 309 310 313 319 321 322 320 322 323 324 324 325 326 327 327 326 326 324 324 324 326 325 324 323 323 324 324 324 323 323 322 322
287 290 289 289 292 292 290 291 292 292 293 290 293 290 293 294 291 292 290 288 287 294 297 297 297 298 297 296 297 297 297 297 297 297 296 297 297 298 298 299 300 300 300 301 301 302 303 303 304 304 306 306 307 307 308 308 309 310 312 313 316 318 320 321 322 322 323 324 324 325 326 325 325 325 325 325 325 324 324 324 323 325 324 323 322 322 322
287 291 290 290 288 290 285 287 291 291 291 291 291 292 294 296 296 291 290 291 293 294 295 294 295 296 296 296 296 295 296 296 296 296 296 296 296 297 297 298 298 299 299 300 301 301 301 301 301 303 304 305 305 306 307 309 309 309 310 310 311 311 313 315 319 322 322 322 322 322 323 323 324 324 323 324 324 324 325 325 325 323 322 322 321 321 320
289 291 292 293 288 280 283 288 288 290 289 289 290 287 288 291 293 292 295 293 294 294 294 294 294 294 294 294 296 297 297 296 296 296 296 296 297 298 298 298 298 299 300 301 301 302 301 302 302 303 303 303 304 306 307 308 308 309 309 309 311 311 311 311 312 315 319 320 321 322 323 323 322 322 322 322 323 324 325 325 324 322 322 321 321 320 319
288 291 291 285 279 283 289 290 292 292 292 292 289 288 289 290 291 294 293 292 292 294 295 295 294 294 294 296 295 296 297 297 296 296 296 296 297 297 298 299 299 299 300 301 301 301 301 301 302 303 302 303 303 304 305 305 307 308 308 308 309 310 310 310 311 311 313 317 320 321 322 322 322 321 321 322 322 323 323 323 322 321 321 320 320 320 320
291 287 287 278 281 287 290 292 293 295 294 293 291 288 289 291 293 294 292 293 294 293 291 291 293 293 294 294 295 295 296 297 297 296 296 297 297 297 298 298 299 299 299 299 300 300 301 300 300 301 301 302 303 303 303 303 304 306 307 307 307 308 308 309 309 310 311 312 314 317 320 321 321 320 320 321 322 324 323 322 322 322 321 321 320 320 321
284 287 287 284 288 288 288 288 290 292 289 290 290 285 286 292 294 295 293 292 292 292 292 292 292 293 294 293 292 294 295 295 296 296 296 297 297 298 298 299 299 300 300 299 300 300 301 301 299 300 301 301 302 302 302 302 302 303 305 305 306 307 307 308 308 309 310 310 311 313 314 318 319 321 321 321 322 324 323 322 321 320 321 321 322 322 322
288 286 284 284 282 280 285 289 292 293 293 293 293 291 286 292 294 296 293 291 291 291 291 291 292 294 292 289 289 292 294 295 296 296 297 297 297 297 297 298 298 299 299 299 300 300 300 300 300 300 300 300 300 301 301 302 301 302 303 303 304 305 306 307 307 308 309 309 310 311 312 313 316 319 321 323 323 323 322 321 320 321 322 321 322 322 322
286 284 282 281 280 281 286 289 290 292 292 294 295 290 286 291 294 295 295 292 293 293 292 293 295 293 291 291 291 293 294 295 296 295 296 296 296 296 297 296 296 297 298 298 298 299 299 299 299 300 300 300 299 299 300 300 301 301 303 303 303 304 305 306 307 307 308 309 309 310 310 312 315 315 318 322 323 324 322 322 321 321 321 321 321 321 321
286 285 282 282 284 281 286 289 290 291 294 291 292 282 283 290 294 294 294 293 293 294 294 294 294 293 291 290 291 294 295 295 296 296 295 295 295 296 296 297 296 297 297 297 297 298 297 298 299 299 299 299 299 300 300 300 300 300 302 302 302 303 304 305 306 307 308 308 309 309 310 311 313 315 316 318 320 322 323 322 320 320 320 320 320 319 320
284 283 284 286 284 286 289 289 291 292 294 292 283 280 286 292 294 294 295 294 294 295 294 293 292 290 291 292 294 295 296 295 295 296 296 296 295 295 295 295 295 295 296 296 296 296 297 298 298 298 298 298 298 298 299 299 300 301 302 303 302 303 303 304 304 305 306 307 308 309 309 310 312 313 314 316 318 320 320 320 319 318 318 318 319 319 319
284 284 282 282 284 285 290 290 290 291 289 282 283 288 294 294 293 294 294 293 294 294 294 295 293 292 293 294 295 295 295 295 296 295 295 296 296 296 296 295 295 295 295 296 296 297 297 297 297 297 297 296 297 298 298 298 300 301 302 302 302 302 302 302 303 304 305 306 308 308 309 309 311 312 314 315 316 319 319 319 318 317 316 317 317 317 317
284 284 282 279 277 283 289 290 288 290 284 284 289 292 293 294 293 293 293 293 293 294 292 294 294 294 294 294 294 295 295 295 295 295 295 295 294 294 294 295 295 294 294 295 295 296 296 297 297 297 297 296 296 297 297 298 300 300 301 301 301 301 301 302 302 303 304 306 306 307 308 309 308 309 311 314 314 317 318 319 318 317 314 312 310 308 308
281 282 279 279 283 287 292 291 285 287 288 291 293 292 290 293 293 293 293 293 294 294 294 293 293 294 294 295 294 295 294 295 295 294 294 294 294 294 294 294 294 294 294 295 295 296 296 297 297 297 296 295 295 295 296 299 299 299 299 299 300 299 300 300 301 301 302 303 305 306 306 307 308 308 309 311 312 313 315 316 316 316 314 313 313 310 307
284 282 283 286 290 291 292 293 291 292 294 295 294 294 293 292 292 295 293 293 294 294 294 293 293 293 293 293 294 293 293 293 293 293 293 293 293 294 294 294 294 294 294 294 294 295 296 296 297 296 296 295 295 295 297 297 297 297 298 298 298 298 299 299 300 300 301 302 303 304 305 305 306 306 307 309 308 310 312 313 311 311 310 311 311 312 309
289 290 291 291 291 291 292 293 294 294 294 295 296 294 293 294 294 295 294 294 294 293 294 293 293 292 292 292 293 292 293 292 292 293 293 293 294 294 294 294 294 293 294 294 294 294 295 296 296 296 296 296 295 295 297 297 297 297 297 296 296 297 297 298 299 299 300 300 301 302 304 304 304 305 306 307 307 309 309 309 310 310 310 310 309 311 310
286 281 290 289 289 291 292 292 293 294 295 294 294 293 293 293 293 293 294 293 293 293 293 292 291 292 291 291 291 291 291 291 291 291 291 293 294 294 293 294 294 294 294 293 293 294 294 295 296 296 296 297 297 297 297 297 297 297 297 296 295 296 296 297 299 299 299 300 300 301 302 303 304 304 305 306 307 306 308 308 309 309 309 310 309 307 308
285 285 289 290 292 292 293 293 291 290 291 292 292 292 292 292 292 293 293 293 292 293 292 291 291 290 291 290 290 290 290 290 290 290 291 292 293 294 294 294 294 294 293 293 293 294 294 295 296 296 296 296 297 297 297 297 297 296 296 295 295 295 296 296 296 297 298 292 295 299 300 302 301 302 303 305 305 306 307 308 308 308 309 309 307 309 309
287 290 291 291 292 292 291 293 295 294 294 293 293 294 293 294 293 293 294 294 293 293 293 293 292 291 291 291 291 290 290 290 291 292 292 293 293 293 293 294 293 293 293 293 294 294 294 295 296 296 297 297 297 298 297 297 297 295 294 294 294 295 295 295 296 296 297 298 298 298 300 301 301 301 302 304 303 304 307 310 309 309 310 311 310 313 311
283 284 287 290 284 284 289 291 292 293 294 294 293 293 293 293 293 293 292 293 294 294 294 293 293 291 291 291 291 290 290 290 292 292 292 292 293 293 294 294 294 293 293 294 294 294 295 296 296 296 297 297 298 298 298 298 297 295 294 294 294 294 294 294 295 295 296 297 298 298 299 299 300 302 292 292 301 305 305 294 289 290 291 306 310 310 306
283 289 291 292 291 291 292 293 293 294 294 294 292 292 293 293 293 293 292 292 292 292 293 293 292 291 291 291 291 290 290 291 291 292 292 292 292 292 293 293 293 293 293 294 294 294 295 296 296 296 296 297 297 297 297 297 297 295 294 292 292 293 293 294 293 294 295 296 297 298 300 299 300 299 303 300 288 286 289 292 294 292 293 292 292 294 304
289 292 292 292 291 289 291 293 294 293 295 294 293 293 293 293 294 293 293 292 292 292 292 293 293 292 290 290 290 289 290 291 291 292 292 292 292 292 292 292 292 292 293 293 294 294 295 296 296 296 297 297 297 297 296 296 295 294 293 292 291 292 293 293 293 292 294 295 295 296 297 299 300 300 300 301 300 290 287 288 290 290 290 291 291 291 294
288 293 293 293 292 292 293 293 294 294 294 294 293 293 293 293 293 293 292 292 293 292 291 291 292 292 290 290 290 290 291 291 291 291 290 290 290 290 291 291 291 292 292 293 294 295 295 296 296 296 296 296 296 295 295 294 294 293 293 292 291 291 292 292 292 292 292 293 294 295 296 297 299 300 299 299 300 300 297 288 288 289 289 289 290 291 291
292 293 294 293 292 292 293 291 292 293 293 293 293 294 294 293 294 293 292 292 292 293 292 291 290 291 291 290 291 291 291 291 290 289 290 290 290 291 291 291 292 292 292 293 294 295 296 296 295 295 295 295 295 294 294 293 293 293 292 292 291 291 291 291 291 292 292 293 293 294 296 296 297 299 299 300 299 301 299 298 297 293 289 288 289 289 289
293 293 292 290 289 290 291 290 290 293 294 294 294 293 293 293 292 292 293 293 293 293 291 291 291 292 292 291 291 291 290 290 291 291 291 290 290 290 291 292 292 292 293 293 294 294 292 294 295 296 295 295 294 294 293 293 292 291 291 291 291 289 287 288 291 291 291 291 292 293 294 296 296 297 298 299 299 299 300 298 298 298 299 297 290 289 295
293 293 293 288 287 289 290 292 292 293 294 293 293 292 293 293 292 291 291 291 291 291 292 292 291 291 290 291 291 290 291 291 290 290 290 289 290 291 292 293 293 293 293 293 294 294 294 296 296 296 296 295 294 293 293 292 291 291 291 291 291 291 291 290 290 290 290 291 291 292 293 294 296 297 297 298 298 299 299 300 299 299 299 300 298 288 287
292 292 293 293 292 292 293 293 293 292 292 293 293 293 292 291 291 290 290 290 290 290 290 291 291 291 291 291 291 290 290 290 289 289 289 290 291 292 293 293 292 292 293 293 294 296 296 296 296 295 295 295 294 293 293 292 291 291 291 291 291 291 291 291 292 291 291 291 291 292 290 292 294 296 297 298 297 299 299 300 298 300 301 299 297 294 291
292 293 293 293 293 293 291 291 291 292 291 292 291 291 291 291 290 289 290 290 290 290 290 291 291 291 291 290 290 290 289 288 288 290 290 290 291 291 291 291 292 293 294 295 295 295 294 294 295 295 295 296 295 294 294 293 293 294 294 294 294 293 293 292 292 292 291 291 291 288 290 291 293 295 297 297 298 297 297 297 297 298 299 299 294 296 294
293 293 293 293 292 292 291 291 291 291 291 291 291 290 291 291 289 289 289 290 290 290 291 291 290 290 290 290 290 289 289 287 287 287 288 288 287 287 288 289 288 289 291 291 292 291 292 294 295 295 296 295 295 294 294 293 293 294 294 295 295 290 288 288 288 292 292 291 290 290 291 291 292 293 293 295 295 296 297 297 296 296 296 298 299 297 293
292 292 292 292 291 291 291 291 291 290 291 291 290 290 290 289 288 289 289 290 290 290 290 290 290 290 290 289 287 287 286 285 285 286 286 286 286 286 286 288 288 287 287 287 288 291 294 294 294 296 297 296 295 294 295 294 294 294 294 292 293 293 291 288 289 290 291 289 290 290 290 292 292 293 293 294 294 295 296 296 296 295 294 295 296 296 295
289 288 289 289 289 289 289 290 290 290 290 290 289 291 291 291 290 290 290 290 290 290 290 289 289 289 288 287 286 286 285 284 285 284 285 285 285 286 286 287 288 288 288 290 293 294 294 294 295 296 297 297 296 296 296 294 293 293 294 293 293 292 290 289 289 290 290 290 289 290 291 291 292 293 294 293 295 295 296 296 295 295 296 297 296 293 292
289 289 289 290 289 288 288 289 291 291 291 291 291 291 291 291 291 291 291 290 290 289 288 288 288 287 286 285 285 284 284 284 286 286 285 284 284 285 286 287 288 291 294 296 296 294 295 296 296 296 296 296 297 297 296 294 293 293 293 293 292 292 292 292 291 290 289 288 289 289 290 290 293 293 293 294 294 295 295 295 295 295 295 296 296 294 289
293 292 292 292 293 292 292 292 291 291 290 289 290 291 291 291 291 291 291 290 289 289 289 289 287 286 285 284 284 283 283 283 283 283 283 284 285 285 286 287 290 293 295 296 295 294 295 296 296 294 293 295 298 298 296 293 292 293 294 294 292 292 292 292 292 291 290 290 290 289 289 291 292 290 292 295 296 295 295 294 295 295 295 293 293 292 290
292 291 292 292 292 293 292 293 293 292 291 289 288 288 290 291 291 291 290 290 291 290 289 288 287 286 285 284 284 283 283 283 283 283 284 284 284 286 286 286 288 291 293 295 295 295 295 296 288 286 290 295 298 299 296 292 293 294 294 294 293 292 292 292 292 292 292 291 290 289 290 289 291 291 292 294 295 295 296 294 292 294 294 293 292 290 289
293 292 292 292 293 293 293 293 293 292 291 290 289 290 291 291 291 291 292 291 291 290 289 287 286 285 284 284 284 284 284 284 284 284 284 284 285 285 285 286 288 289 291 291 292 293 294 295 288 285 291 298 298 298 295 286 293 294 294 293 293 292 291 291 291 292 291 291 290 290 289 290 291 292 292 293 295 294 294 294 293 292 292 291 290 289 290
293 293 292 292 292 293 293 293 293 293 292 290 291 291 291 292 291 292 292 291 290 290 289 288 287 286 285 284 284 284 283 283 283 283 283 283 284 284 285 287 288 288 288 287 291 291 294 291 286 290 297 298 298 299 295 287 286 295 295 293 292 292 291 291 290 290 291 292 290 292 292 291 291 292 294 294 294 295 294 294 293 293 292 291 290 289 289
292 294 294 294 293 293 293 293 294 293 292 291 291 291 292 291 292 292 291 291 291 290 288 287 287 286 285 285 284 285 284 284 283 283 283 283 285 285 286 287 289 289 289 290 291 292 293 290 291 295 296 297 297 299 294 289 287 297 296 295 293 292 291 291 290 290 290 292 292 292 293 293 293 293 294 295 295 294 293 295 293 293 292 291 291 290 289
292 292 293 293 293 292 292 292 293 293 293 293 292 291 292 292 292 291 290 290 290 289 288 288 287 286 286 286 285 285 286 285 285 284 284 285 286 287 288 290 291 292 291 287 291 293 289 286 291 296 296 297 297 296 295 292 290 296 297 296 294 291 290 290 290 290 290 291 292 290 292 293 294 293 293 294 294 294 295 293 294 295 293 293 292 291 288
293 293 293 293 293 293 292 292 292 293 294 293 293 292 293 292 292 291 290 290 290 290 289 289 288 288 287 287 286 287 288 288 288 288 287 287 286 287 287 287 290 292 291 289 290 290 289 290 292 293 295 294 297 290 293 291 297 298 297 296 295 294 291 289 289 289 289 290 291 292 293 293 292 292 291 291 291 291 292 292 292 292 293 293 292 291 290
294 294 294 294 294 294 293 293 293 293 294 294 292 293 293 293 293 291 291 290 290 289 288 289 287 288 289 288 287 287 288 288 288 288 288 288 286 286 286 286 290 290 285 287 289 290 293 293 292 290 291 291 293 288 285 292 298 298 297 296 295 294 292 291 289 289 290 290 291 292 292 292 292 291 291 290 289 289 289 290 291 291 291 290 290 290 290
295 294 294 294 294 294 294 293 293 293 294 293 293 293 293 293 293 293 292 291 290 289 288 288 288 286 286 287 287 286 287 288 288 288 288 289 288 288 287 288 291 290 284 287 290 292 292 293 292 291 286 285 288 285 286 296 297 297 297 296 294 294 293 292 290 289 288 288 288 288 289 289 289 290 289 289 289 289 289 289 288 288 288 289 289 289 289
295 295 294 294 294 294 294 293 293 293 293 293 294 294 294 293 293 292 292 291 290 288 287 288 288 288 288 287 286 286 287 287 288 288 287 288 289 290 290 289 290 288 285 287 290 291 291 291 290 286 284 284 285 285 292 297 296 296 296 295 295 295 293 292 291 290 289 288 288 288 287 287 287 288 287 287 287 287 287 287 287 287 288 288 289 289 290
295 295 295 295 295 295 294 293 292 292 293 293 294 294 293 293 293 293 292 291 290 289 287 287 287 288 288 287 287 287 287 287 287 287 287 286 286 287 289 286 289 288 287 285 290 291 291 289 285 283 284 284 285 285 294 294 294 294 294 294 293 293 293 293 292 291 290 290 290 289 287 287 286 286 286 286 286 287 287 287 287 288 288 288 289 289 290
295 296 296 291 295 295 295 294 294 294 294 293 293 293 292 293 293 293 293 292 291 290 290 288 288 288 288 288 287 287 287 287 287 288 288 288 288 288 287 285 287 286 284 284 290 291 290 284 283 284 284 284 285 291 293 293 293 293 293 293 293 293 293 292 292 292 291 292 291 290 290 288 287 286 286 286 286 287 287 287 287 288 289 289 289 289 290
294 295 295 295 295 295 295 295 295 294 293 293 292 292 292 293 293 293 293 293 292 292 291 290 289 289 289 289 288 287 287 287 287 288 288 289 287 287 285 284 284 284 285 289 289 289 287 286 284 283 284 284 285 292 292 292 292 292 292 293 293 292 291 291 291 291 291 291 290 290 288 290 290 289 288 288 288 288 288 287 287 287 287 287 288 288 288
294 294 295 295 295 295 295 295 294 293 293 292 292 292 294 294 294 293 294 294 293 292 292 291 290 290 289 289 289 289 289 288 286 286 288 289 290 289 289 289 287 283 283 284 284 284 281 282 282 283 284 284 291 292 291 291 292 291 291 291 291 292 291 291 292 291 292 292 292 292 292 291 291 291 290 289 289 289 289 288 289 288 289 289 288 288 287
295 294 295 295 295 296 295 294 293 293 293 294 293 293 294 294 294 293 293 293 293 292 292 291 291 290 290 289 289 289 289 289 288 287 288 289 289 289 289 284 282 282 286 290 290 289 283 281 283 283 284 286 291 291 291 291 290 290 289 289 289 289 290 289 290 291 291 290 290 290 290 289 290 290 289 288 288 287 287 287 287 288 287 287 287 287 287
295 295 294 294 294 293 293 293 292 292 294 294 294 293 294 294 293 293 293 292 293 291 292 291 291 291 291 291 290 289 289 289 288 289 289 288 287 288 287 288 287 284 284 289 289 289 284 281 284 285 287 290 290 290 291 291 290 289 289 289 288 289 288 287 286 287 288 288 289 288 287 287 287 286 286 287 286 286 285 285 285 284 284 285 285 285 285
294 293 294 293 293 294 294 294 293 293 294 294 295 293 294 293 293 293 294 293 292 291 291 291 291 291 291 291 290 290 289 289 288 286 288 288 288 286 285 287 286 286 287 287 288 289 290 290 289 288 288 288 289 289 289 289 289 288 287 288 288 289 288 288 288 288 289 289 288 288 288 288 287 287 286 286 285 285 285 285 285 285 285 285 284 284 283
295 295 295 295 295 295 295 295 295 295 295 294 294 294 294 293 293 293 294 289 292 292 291 291 290 291 292 291 290 290 290 289 288 287 286 288 287 288 285 284 287 285 287 288 288 289 289 287 285 285 286 288 288 287 285 285 287 287 287 287 287 288 287 288 288 288 288 288 288 288 288 288 288 287 286 286 286 285 285 284 284 284 284 284 284 284 283
Wind_Speed
10 10 9 7 6 7 7 8 7 7 5 5 3 5 7 7 4 4 10 12 10 10 9 8 8 8 9 9 9 9 9 10 11 12 13 13 14 14 14 15 15 15 15 15 15 15 14 14 14 14 12 12 11 10 9 7 6 5 3 2 2 3 3 4 4 5 5 6 7 8 8 8 7 7 7 6 6 7 7 7 6 6 7 8 9 9 9
9 8 10 11 8 5 6 7 8 8 10 9 8 8 9 8 9 11 12 13 11 9 8 8 8 8 9 9 8 9 10 11 11 12 13 13 13 14 14 14 14 14 15 15 15 15 15 15 15 13 12 12 11 10 9 8 7 6 4 2 2 2 2 2 3 4 5 6 6 7 8 8 7 7 7 8 7 7 7 7 7 7 8 8 9 10 11
7 7 3 5 9 9 6 5 6 7 9 10 9 9 9 11 12 11 14 12 9 7 7 9 8 8 8 8 11 11 11 11 12 13 13 13 14 14 14 14 14 14 14 14 14 15 15 14 13 12 11 11 10 10 9 9 8 6 5 4 3 1 3 1 1 2 4 5 6 6 7 7 8 7 8 8 8 8 9 9 9 9 10 11 11 11 11
6 7 4 3 5 8 8 6 1 5 6 5 6 4 6 3 7 10 10 7 6 8 9 9 8 10 10 11 11 10 10 11 12 13 13 13 13 13 13 13 13 14 14 14 14 14 13 13 13 12 10 10 10 9 8 8 8 8 7 6 4 3 2 1 0 2 2 3 5 5 6 6 7 7 9 10 9 9 9 10 9 9 10 11 11 11 10
5 10 8 6 3 4 7 4 4 4 5 5 5 6 5 8 5 9 4 4 8 10 9 10 11 11 12 12 11 10 11 11 12 13 13 13 13 13 13 13 13 13 13 13 13 12 12 12 11 12 11 10 10 9 9 8 7 6 6 6 6 6 5 2 0 2 2 3 4 5 5 6 6 7 9 10 10 10 10 10 10 11 11 11 11 10 9
4 12 10 9 7 9 8 3 2 1 5 4 3 3 3 4 5 3 6 11 13 12 10 11 12 11 10 10 10 9 8 9 10 12 12 11 11 11 12 12 12 12 11 10 11 11 11 11 11 10 11 11 10 9 9 8 8 6 5 6 6 6 6 5 4 2 3 4 5 5 5 5 6 7 9 10 9 9 9 9 10 11 12 12 11 11 11
5 8 9 7 10 7 5 3 4 3 5 7 11 9 5 2 2 6 12 14 14 12 9 10 12 12 12 11 11 10 9 9 9 10 11 10 10 10 10 11 11 10 10 10 11 11 11 11 10 10 11 11 10 9 9 9 8 7 6 6 6 6 6 6 6 5 4 3 4 5 5 6 6 7 8 9 10 9 8 9 10 11 12 12 11 12 11
4 5 7 6 4 7 3 6 5 4 7 10 13 9 6 4 5 9 12 13 12 12 12 11 10 12 12 11 11 10 10 9 8 8 9 9 10 10 9 9 9 9 10 10 10 9 9 9 9 10 10 10 10 9 9 9 8 8 7 6 7 7 7 7 7 6 6 5 4 5 6 6 7 8 8 9 9 8 8 8 9 9 10 11 12 11 12
5 5 9 5 5 6 6 5 6 5 5 8 5 3 4 3 4 8 12 12 12 12 11 11 10 10 10 9 8 8 9 9 9 9 9 9 9 9 8 8 8 8 8 8 8 7 7 8 9 9 9 9 9 8 8 8 9 8 8 8 8 7 7 8 8 8 7 6 5 5 5 7 7 8 9 9 8 8 8 8 9 10 10 11 10 11 12
3 6 8 4 3 7 5 4 5 4 4 5 2 3 6 4 4 9 12 14 14 13 12 11 9 8 8 6 5 6 7 7 8 8 8 8 8 8 8 8 8 8 7 7 7 7 8 7 8 8 8 9 8 8 9 9 9 9 8 8 9 9 9 9 9 8 8 7 7 6 5 5 7 8 8 8 8 7 8 9 10 10 10 10 9 7 6
4 6 9 9 9 1 4 6 4 4 2 3 2 3 4 7 7 10 12 14 13 12 11 10 8 6 7 6 6 5 5 6 7 7 7 8 7 8 8 9 10 9 8 8 8 8 8 8 9 9 10 10 9 9 9 9 9 9 9 9 10 10 9 9 9 9 8 9 8 8 7 7 5 7 8 9 8 8 8 9 10 9 9 10 9 7 5
4 7 9 8 1 3 2 3 2 3 3 3 5 6 6 11 10 10 11 12 11 10 9 6 4 2 4 7 7 6 5 6 7 7 8 8 8 9 9 10 10 9 9 10 10 10 10 9 9 9 8 8 8 8 8 8 9 8 8 9 10 9 9 9 9 8 8 8 8 9 9 8 7 6 5 7 9 10 9 9 9 9 9 10 10 8 6
1 2 7 1 4 3 3 2 4 3 3 4 6 7 7 11 11 9 10 10 7 7 6 6 3 6 7 8 7 6 5 5 6 6 6 6 7 8 8 9 9 8 8 8 8 9 8 8 9 8 8 8 8 8 8 8 8 8 8 8 9 9 9 9 10 10 9 8 9 9 9 9 8 7 5 5 5 7 8 8 8 7 9 9 9 9 10
5 4 6 4 2 3 4 4 6 6 3 5 2 6 6 11 11 9 10 10 8 7 5 4 7 7 7 7 6 6 6 6 5 5 6 6 7 7 7 7 7 8 8 8 8 9 8 9 9 8 8 9 9 9 9 9 9 8 8 9 9 9 10 10 10 10 10 9 9 8 8 8 8 8 7 5 4 5 7 8 9 9 5 6 7 5 2
1 2 4 1 6 3 4 4 3 3 2 4 5 8 10 9 11 10 10 8 8 7 8 8 8 7 6 6 6 5 5 5 6 6 7 7 7 7 8 8 8 8 8 7 8 8 7 7 7 7 8 9 8 8 9 10 10 9 9 9 10 10 10 10 11 10 10 10 9 7 7 8 9 9 8 7 5 5 6 7 9 8 7 7 5 4 5
4 6 6 2 4 3 2 4 1 5 7 6 6 8 10 8 8 8 7 8 7 7 7 6 6 5 5 5 5 4 4 5 5 5 6 6 7 7 7 7 7 8 7 7 7 7 7 6 6 7 7 8 8 9 10 9 9 9 10 10 10 10 10 10 11 11 11 10 9 9 9 9 9 9 9 7 6 6 6 6 6 7 9 10 8 6 7
3 5 4 4 3 4 5 7 10 10 9 6 7 7 8 7 7 5 7 7 7 6 6 6 5 5 5 4 4 4 4 5 5 6 6 6 6 7 7 7 7 7 8 8 8 8 8 8 8 7 7 8 9 10 9 9 9 10 10 10 10 10 11 11 11 11 11 10 10 10 10 9 9 9 9 9 8 8 8 8 8 10 11 10 11 10 10
7 8 7 6 7 8 8 8 8 10 9 8 7 7 7 7 7 6 6 7 6 6 5 4 5 5 4 3 3 3 4 4 4 4 5 5 5 5 6 6 7 8 8 8 8 9 9 9 8 7 7 8 10 10 9 9 9 10 10 10 10 11 11 11 12 12 12 12 12 12 11 10 10 9 9 9 9 8 8 9 10 11 10 9 10 11 11
3 4 5 8 8 7 8 9 8 8 7 8 7 8 7 7 6 7 7 6 6 5 5 5 4 3 3 3 3 3 3 4 5 6 6 6 6 6 7 7 8 8 8 8 8 9 10 9 8 8 8 8 9 10 11 11 12 12 12 12 11 11 11 11 12 12 13 12 11 11 12 11 10 10 9 9 9 10 8 8 9 10 10 10 10 11 11
1 7 8 7 6 5 6 6 6 6 6 6 6 6 6 6 6 6 6 5 5 3 4 3 3 2 2 2 3 3 4 4 5 5 6 7 7 7 7 8 8 9 8 9 9 9 9 8 8 9 9 10 10 11 11 11 11 12 13 13 14 14 14 12 11 11 12 12 13 11 12 11 11 11 11 11 9 8 8 8 9 10 9 9 11 10 11
5 8 7 6 5 5 4 3 3 4 4 6 6 5 6 6 6 6 5 4 3 3 2 2 2 2 2 2 4 5 5 5 5 6 7 7 8 8 8 9 9 9 9 8 8 8 8 8 8 9 9 10 11 12 12 12 13 13 13 14 13 14 14 14 14 13 12 12 12 12 11 12 12 12 12 10 10 9 10 6 4 5 7 7 2 1 3
4 4 7 9 4 5 7 5 5 5 4 4 5 4 4 3 3 3 2 4 4 2 3 3 3 4 3 4 5 6 5 6 6 7 7 8 8 8 8 8 9 8 7 7 8 8 8 8 8 9 10 11 12 12 13 13 13 13 13 13 14 14 12 13 13 12 11 11 12 12 12 12 12 10 5 3 5 7 5 6 5 5 7 5 3 2 4
0 6 9 4 4 6 4 7 6 5 3 2 3 2 2 2 1 1 1 1 1 1 1 2 4 4 5 5 5 5 6 6 7 7 8 9 9 9 10 9 8 7 7 7 8 9 9 9 10 11 11 12 13 13 14 14 14 14 14 13 13 13 13 13 12 12 12 12 12 12 12 12 11 13 9 5 3 4 6 2 4 5 5 1 4 6 3
7 4 7 4 2 4 5 5 5 4 3 1 1 2 2 1 1 0 2 3 4 4 2 3 3 4 4 4 5 6 6 6 8 8 8 9 9 9 8 8 8 8 8 8 9 9 9 10 11 12 13 13 13 14 14 14 14 14 14 13 13 13 13 13 12 12 12 12 12 12 12 12 12 11 12 10 5 2 1 5 7 9 11 12 7 3 1
5 4 6 5 6 6 5 4 3 3 2 0 1 0 1 1 1 2 3 3 2 4 5 4 4 2 3 4 4 6 8 8 8 9 9 8 8 8 7 7 7 7 7 8 9 9 10 10 12 12 13 13 13 13 13 13 13 14 14 13 14 14 13 13 13 13 13 12 12 12 12 12 12 12 12 12 10 6 4 4 1 6 7 8 10 13 13
5 5 5 5 5 4 3 3 3 2 2 2 1 1 2 1 6 3 3 3 3 2 3 2 3 2 2 5 6 7 8 8 8 8 8 7 7 7 6 6 6 7 8 9 9 10 11 12 12 13 13 14 13 13 13 13 13 13 14 14 15 13 13 13 13 12 13 12 12 12 12 11 11 12 13 12 12 9 7 6 3 2 3 5 7 9 9
5 5 5 4 3 3 1 2 2 3 2 1 1 2 3 1 6 4 2 2 3 3 3 3 4 5 6 6 7 7 8 8 8 7 7 8 7 6 6 6 7 8 9 9 9 9 11 11 12 13 13 13 12 12 12 12 13 13 13 14 14 14 16 13 13 13 12 12 11 11 11 11 10 11 12 12 12 11 10 7 8 7 7 5 5 3 5
5 4 0 2 1 1 1 2 1 1 2 1 1 3 2 2 3 3 4 3 3 4 5 4 5 6 7 6 7 8 8 8 8 8 8 7 6 6 6 7 8 9 9 9 9 9 10 11 12 13 13 11 11 12 12 12 12 12 13 13 13 13 13 13 11 12 13 12 11 10 11 11 11 10 10 11 10 10 9 9 8 8 7 7 6 8 9
5 4 2 3 3 3 2 2 2 2 2 2 3 2 3 4 3 3 3 2 2 3 5 5 5 6 7 7 7 8 8 8 9 9 7 6 6 6 6 7 8 9 8 7 8 8 10 11 12 14 13 11 9 11 11 11 11 11 11 12 12 12 12 12 12 12 12 12 11 10 10 9 10 10 10 10 10 10 9 8 6 7 7 8 7 7 7
5 4 3 2 2 2 3 3 3 3 3 3 3 3 3 4 4 2 2 3 4 4 5 6 6 6 6 7 7 7 8 8 8 7 6 6 6 6 7 8 9 8 6 6 7 9 9 10 12 13 12 11 12 13 12 12 12 13 13 14 13 11 10 11 10 11 10 11 10 9 8 8 9 10 10 9 9 9 9 6 3 3 4 7 7 5 6
5 4 3 2 3 3 4 3 3 3 4 4 4 4 4 4 4 3 4 4 4 5 6 6 7 7 7 6 6 5 5 4 4 5 6 5 5 6 7 7 7 6 6 7 9 9 9 10 10 11 11 11 12 13 13 12 12 13 12 10 9 9 11 12 11 11 9 9 8 8 8 8 8 9 8 8 8 8 9 8 5 4 3 6 6 6 6
6 6 6 4 4 4 5 4 4 4 4 4 5 5 4 4 5 5 4 5 5 6 7 6 6 5 4 3 3 2 2 4 5 5 5 5 5 5 5 7 6 8 9 9 8 8 8 10 11 11 12 11 12 13 12 12 12 11 11 11 11 10 9 10 7 7 7 5 6 6 6 7 8 8 7 8 6 6 7 7 6 4 4 3 4 7 8
5 5 5 5 5 5 5 4 5 4 5 5 5 5 4 4 4 4 5 5 6 6 5 4 3 1 1 1 1 2 3 4 5 5 4 4 5 5 5 5 6 6 7 7 7 7 8 9 10 11 12 12 12 13 12 12 11 9 10 11 11 9 8 7 3 5 6 6 5 5 5 5 6 7 7 7 7 5 5 5 4 4 3 5 5 6 7
3 2 3 2 2 4 4 4 4 5 5 5 5 5 5 4 4 4 5 5 5 4 4 1 0 1 1 0 2 2 3 4 2 2 4 6 6 5 5 6 6 8 8 6 4 5 6 7 9 10 12 12 12 12 12 12 10 9 10 10 9 9 8 6 1 3 4 5 5 3 4 4 6 6 7 7 5 5 4 4 4 4 3 5 7 8 10
1 2 1 0 1 2 3 4 3 5 5 5 5 6 5 4 4 4 2 5 5 3 2 1 2 2 1 2 2 2 3 3 5 6 7 6 5 6 6 7 7 7 4 2 4 5 7 7 8 10 13 12 11 12 12 11 10 9 10 9 9 7 7 6 3 1 2 3 4 3 3 5 3 4 6 7 7 7 5 3 4 5 5 6 7 8 9
3 3 2 1 1 2 2 3 2 4 4 3 2 3 5 4 4 5 4 4 2 2 0 2 2 2 2 3 2 1 2 4 6 6 6 6 6 5 4 5 6 6 4 2 5 7 8 7 9 12 11 9 9 12 11 10 9 9 8 8 7 7 6 6 5 3 1 1 2 3 3 2 2 2 4 5 6 7 5 3 3 5 5 6 7 9 9
4 2 1 1 1 2 2 3 2 2 3 4 6 6 5 5 4 3 3 4 2 1 1 2 3 3 2 2 2 2 1 2 3 3 4 4 4 4 5 6 4 5 5 4 7 9 8 8 12 16 12 7 9 10 10 10 8 8 7 7 8 8 7 6 6 5 4 3 3 2 2 2 2 3 3 3 5 5 3 3 6 6 6 7 8 8 9
5 3 2 1 1 3 3 3 3 3 3 4 4 5 4 4 4 4 4 3 2 1 1 3 3 3 2 2 2 3 3 2 3 3 4 5 4 5 6 3 2 3 4 5 8 7 7 10 13 11 7 7 8 9 9 11 13 7 8 7 7 7 8 7 7 6 6 5 3 3 3 3 3 4 6 4 4 6 5 4 5 6 6 7 8 8 7
6 4 3 2 2 2 3 4 5 4 4 5 6 5 4 3 4 4 3 3 1 1 3 4 4 4 3 3 3 2 3 3 3 3 3 5 4 4 2 2 2 2 3 6 8 7 7 9 11 9 6 7 8 8 8 9 13 8 10 9 9 8 8 7 7 7 7 6 5 5 5 5 5 5 6 5 5 6 5 6 7 8 7 8 9 9 8
6 5 5 5 4 2 3 4 6 6 5 5 4 5 4 4 3 2 2 2 1 2 3 5 5 5 5 5 4 3 3 4 4 4 4 4 4 4 4 2 5 4 6 8 7 5 8 12 10 7 6 7 7 7 7 9 11 8 9 9 9 9 8 8 8 8 8 7 6 5 6 6 6 6 6 6 6 6 6 7 7 8 8 9 11 9 5
7 6 6 5 4 4 4 4 6 6 6 6 6 5 4 3 2 2 2 2 1 2 3 4 5 4 3 3 4 3 2 2 3 3 2 3 3 2 1 2 4 4 7 8 7 7 9 7 7 7 7 8 6 8 8 10 7 8 8 9 9 9 9 9 8 8 8 7 7 7 7 7 8 8 8 8 8 8 7 8 8 9 9 10 11 10 9
8 7 6 6 5 6 5 5 5 6 6 6 6 6 5 4 3 3 1 1 1 2 3 4 1 3 2 2 2 3 3 3 3 3 2 2 3 2 2 2 4 4 9 9 7 6 4 5 6 6 8 9 7 11 12 9 5 7 8 9 9 9 9 9 9 9 8 8 8 8 8 8 8 8 8 7 8 8 9 9 10 10 10 9 9 9 8
9 9 8 8 7 7 7 6 6 6 7 7 7 7 5 4 3 3 2 2 2 2 3 3 4 4 5 4 3 3 3 3 3 2 2 1 1 2 3 3 3 5 7 7 7 4 5 5 6 6 9 10 8 12 14 5 5 5 7 8 8 8 8 9 9 9 9 9 9 9 9 8 8 8 8 8 9 9 10 9 10 10 9 9 9 8 9
8 8 8 8 8 7 7 6 6 6 7 7 7 7 6 5 4 4 3 3 3 2 3 3 4 4 4 3 3 3 2 2 3 2 2 3 4 3 2 3 3 3 4 6 5 4 4 5 5 9 11 11 12 13 7 5 5 5 6 7 7 8 8 8 8 8 9 9 9 8 8 9 9 9 9 9 10 10 10 9 9 8 7 7 8 8 9
7 7 8 8 7 7 7 6 6 6 6 5 6 6 6 6 5 4 4 4 3 2 2 3 4 4 3 3 3 2 1 1 1 2 2 1 1 3 4 1 1 3 4 8 4 3 4 5 7 10 9 11 11 12 5 5 6 6 6 6 6 6 7 8 8 8 8 8 8 8 8 8 8 8 9 8 9 9 8 9 8 7 7 7 8 8 8
6 7 8 8 8 8 7 6 5 5 5 5 6 7 7 7 6 4 4 4 4 4 3 2 3 4 3 3 2 2 2 2 1 1 2 3 3 3 5 4 3 4 7 9 3 4 4 5 7 8 9 10 12 6 5 5 5 5 6 6 6 6 7 6 7 7 8 8 8 7 7 7 7 8 7 7 8 8 8 8 9 8 7 6 7 7 8
5 6 7 8 8 8 8 7 6 6 6 6 7 6 7 8 7 6 4 4 4 4 3 3 3 3 3 3 3 3 3 3 2 1 1 2 3 2 3 2 1 3 5 3 4 3 4 5 7 9 9 10 10 4 4 4 5 5 6 6 6 6 7 6 6 7 6 7 8 9 10 9 8 8 8 8 7 7 6 6 7 7 7 8 8 8 8
5 6 6 7 8 8 8 8 8 8 8 7 7 6 6 7 7 7 5 4 4 5 5 4 3 3 4 4 4 3 3 2 1 3 2 1 1 1 0 2 4 5 4 5 4 4 4 6 7 8 9 10 4 5 5 5 5 5 5 6 6 6 4 5 4 5 6 7 7 7 6 6 8 8 7 7 7 7 7 7 7 7 7 6 7 6 7
5 5 4 5 5 5 6 7 8 8 7 7 7 6 6 6 7 7 6 6 5 5 5 5 5 4 4 4 4 3 3 2 3 1 3 1 1 1 3 4 4 6 5 1 2 2 4 5 6 7 9 8 3 5 5 6 6 6 6 5 5 5 5 5 4 4 5 6 7 7 7 7 7 6 6 6 7 6 7 7 6 6 6 6 6 7 6
4 4 5 6 6 6 5 6 7 7 6 6 6 5 6 6 6 7 7 7 6 5 5 5 5 5 4 5 5 4 3 3 2 1 2 2 1 1 1 1 2 4 6 2 1 1 4 4 4 4 6 3 5 5 6 5 6 5 5 6 7 6 7 7 8 8 7 7 7 7 6 6 6 7 7 6 6 6 7 7 7 8 9 7 6 5 5
4 5 5 6 7 8 10 9 8 8 6 5 5 5 6 7 7 7 7 7 7 6 6 5 5 4 4 4 4 4 4 4 3 3 2 3 2 2 1 2 3 2 1 2 1 0 0 1 2 1 2 3 3 4 3 5 4 4 5 4 4 6 6 7 6 6 7 7 7 7 7 7 7 7 6 7 7 7 7 6 6 6 6 6 6 6 5
5 5 4 3 4 4 5 6 7 6 5 5 5 5 6 6 7 7 7 7 7 6 6 6 5 5 5 5 5 4 5 4 4 5 4 3 3 3 4 3 3 4 4 2 1 1 1 2 2 4 3 2 3 4 5 5 5 4 4 5 5 5 6 6 6 5 5 5 5 6 8 7 7 8 7 7 7 7 7 7 7 7 7 7 7 7 7
Wind_Direction
54 34 36 39 66 65 78 70 61 54 38 38 359 22 5 321 263 261 138 133 114 129 124 120 120 128 123 117 108 105 103 103 103 100 94 88 84 81 77 73 71 69 67 63 58 56 57 58 57 55 56 57 55 55 57 66 68 79 112 155 169 181 187 207 212 226 225 226 225 220 217 215 210 207 200 198 201 207 203 201 200 212 206 195 181 178 172
86 47 26 21 46 86 85 69 70 67 67 73 72 60 42 52 77 98 122 105 103 115 128 131 129 125 118 114 112 106 102 98 95 91 88 85 81 77 73 70 68 65 64 62 59 56 52 50 50 52 54 55 55 52 49 46 54 62 78 99 150 163 200 205 225 231 234 228 227 227 226 227 223 208 208 203 204 210 209 209 194 195 191 187 184 178 176
116 92 75 37 21 10 28 47 53 66 85 86 87 93 81 81 77 89 101 101 109 110 130 128 123 127 122 113 101 96 95 97 93 89 84 80 77 75 72 70 67 64 61 58 56 53 51 49 46 45 47 55 53 52 49 51 49 49 58 65 82 100 112 107 294 271 257 256 248 242 239 234 238 234 238 222 205 207 211 209 196 191 192 185 186 187 185
167 151 128 87 3 342 324 307 298 40 42 69 33 36 355 321 131 121 117 121 127 141 134 129 139 135 121 108 103 100 98 94 91 87 82 77 74 71 68 65 62 59 57 53 49 49 46 43 44 40 39 43 45 45 44 49 56 54 50 49 61 67 45 85 303 245 235 256 262 264 261 245 235 224 232 237 229 216 200 190 194 190 194 196 193 192 192
201 168 147 130 100 336 310 267 105 88 83 86 105 73 44 43 109 146 174 92 117 134 141 136 126 120 114 108 102 97 88 84 84 82 78 75 70 65 61 58 55 51 51 50 46 41 41 36 34 33 30 31 31 28 32 33 37 51 69 73 69 54 36 12 40 288 274 256 260 260 250 256 260 258 249 243 240 234 217 198 178 191 205 202 199 202 207
158 150 161 163 190 212 222 71 165 66 128 144 126 82 28 25 357 12 52 122 130 140 145 134 128 118 105 99 86 81 87 87 82 80 77 72 69 63 57 52 47 43 40 40 37 35 34 30 26 23 25 19 14 23 21 26 24 19 36 59 58 60 59 53 27 347 280 261 256 256 267 261 247 244 246 247 250 243 232 216 203 197 199 198 201 206 211
168 154 157 199 222 227 60 201 158 141 99 114 105 99 72 76 69 111 115 125 139 143 136 121 114 109 105 98 92 81 72 80 82 79 74 66 61 58 55 49 45 40 35 32 30 26 24 19 16 14 18 12 5 12 15 17 11 12 11 27 39 33 39 37 40 29 356 321 286 278 258 252 249 247 243 246 245 242 233 222 217 208 205 205 213 225 222
109 185 193 217 225 71 111 108 127 129 139 126 112 84 73 74 141 142 130 133 132 127 119 118 116 115 108 95 77 73 68 57 65 68 66 64 61 55 50 49 45 36 33 31 25 22 17 12 14 12 10 4 1 1 1 3 360 2 2 6 21 19 17 20 17 17 11 358 330 293 280 260 255 249 243 241 242 239 237 228 226 226 223 224 224 228 230
213 216 206 225 86 153 126 130 146 169 153 182 197 164 113 114 138 147 134 128 128 128 127 126 127 124 119 99 81 61 60 60 58 59 61 54 56 56 52 48 45 39 28 28 27 19 20 19 11 9 2 360 351 347 353 351 353 349 352 355 0 5 5 7 1 356 356 349 350 327 303 285 266 257 251 240 237 236 234 231 231 231 230 227 226 224 228
259 226 223 206 209 232 147 99 98 31 16 16 338 97 116 140 149 147 141 137 136 132 131 134 139 157 134 111 99 71 65 59 59 59 55 52 48 46 43 35 31 27 23 13 15 11 5 10 10 2 352 351 346 349 349 347 346 339 343 348 350 353 355 353 345 344 339 340 340 341 315 295 283 270 260 250 239 233 235 228 230 235 234 234 232 226 226
198 237 239 230 229 116 47 110 120 57 18 298 319 250 169 143 149 148 144 140 141 141 145 144 161 189 199 138 113 92 70 63 49 46 45 39 36 38 31 24 11 8 8 3 358 4 2 4 2 353 349 345 346 343 342 342 339 337 342 345 344 344 342 340 337 335 334 333 331 329 327 315 301 286 266 254 245 232 228 233 240 244 243 242 233 222 218
215 234 236 241 30 77 105 77 353 30 327 41 258 230 196 148 149 145 143 141 145 144 142 151 188 250 248 125 104 84 69 62 52 33 28 24 19 20 16 17 6 354 358 354 357 360 359 358 351 347 344 342 339 333 335 332 327 328 332 332 329 326 328 329 327 325 324 327 328 328 321 321 307 292 280 266 252 244 233 232 240 243 240 240 233 217 199
92 263 241 213 126 88 82 42 12 17 285 261 205 230 109 144 136 140 141 136 138 142 150 195 166 79 66 75 90 79 58 54 49 42 33 24 14 12 10 10 356 354 354 354 350 352 351 348 346 343 341 335 331 329 325 320 319 322 323 317 315 317 313 313 315 316 319 318 323 321 316 314 313 296 278 264 255 242 234 230 227 229 233 237 234 225 215
225 229 244 249 49 46 18 27 13 348 295 184 232 69 128 125 126 120 118 113 107 111 98 101 89 88 80 81 75 71 56 49 43 21 19 11 6 7 8 360 360 355 344 345 345 347 347 344 343 340 338 332 325 326 319 314 319 319 315 315 313 308 304 301 304 306 306 309 311 309 308 309 308 302 289 271 251 238 228 225 215 212 213 226 218 209 219
95 197 222 193 247 84 353 17 127 357 314 55 100 124 111 116 111 113 106 99 95 95 94 82 84 85 76 67 60 56 51 32 23 12 9 1 355 356 352 350 2 353 337 339 344 338 335 335 335 332 328 319 315 314 310 313 317 317 314 309 305 303 302 301 298 297 296 297 298 298 300 301 298 294 294 283 260 251 235 223 218 208 186 156 132 105 80
264 213 209 265 26 78 40 302 188 82 71 103 110 112 115 113 116 110 106 87 79 80 87 97 88 82 88 78 53 44 36 21 8 2 354 352 347 348 344 342 349 342 332 335 331 330 327 331 328 327 320 314 314 310 305 310 311 307 303 299 299 296 292 289 289 287 287 285 284 285 287 292 292 285 282 283 273 249 231 211 212 213 215 201 179 160 146
6 25 58 99 119 76 70 77 91 99 102 102 100 96 109 112 94 87 97 94 84 72 82 84 80 90 65 48 46 29 12 358 351 349 346 343 341 338 337 336 345 334 333 330 327 328 332 331 329 325 323 314 314 308 310 314 309 306 303 300 295 290 285 281 279 279 278 278 277 276 275 273 276 278 271 266 261 247 238 232 214 205 216 190 182 177 156
99 79 77 99 117 108 90 78 84 92 84 79 89 100 100 75 67 63 81 86 81 73 48 60 78 61 45 34 26 11 359 345 350 335 332 334 336 332 329 332 344 331 327 326 326 329 329 330 326 320 316 310 306 308 307 305 303 301 302 300 297 292 292 289 285 280 274 271 269 267 267 264 262 263 268 269 262 254 242 234 234 228 210 198 196 180 170
189 90 119 108 110 118 104 93 89 78 64 67 66 73 70 78 77 76 71 71 76 63 60 57 52 65 47 29 17 2 341 342 338 334 330 334 332 335 334 338 334 330 332 327 332 332 330 332 332 327 320 314 312 312 311 308 304 301 296 294 292 289 286 286 282 276 273 269 265 260 254 253 252 250 251 254 254 255 256 245 235 238 233 209 198 207 191
344 118 135 129 103 107 131 128 113 104 93 88 79 83 87 90 94 98 100 111 93 100 90 78 73 87 97 20 4 343 335 331 327 327 332 329 332 331 332 329 335 327 329 329 328 332 329 331 326 323 322 322 319 317 315 312 308 304 298 296 292 291 290 286 284 286 283 277 271 265 262 255 252 249 244 242 247 251 248 249 242 233 238 228 215 199 201
101 118 142 145 147 149 143 147 88 93 112 111 111 106 120 129 118 116 111 76 77 63 76 66 41 10 22 11 352 337 330 328 331 337 329 329 325 325 324 332 329 326 326 324 323 322 321 319 317 316 317 316 317 315 312 309 306 299 292 289 286 286 287 285 282 280 278 278 272 267 261 255 249 246 239 231 242 246 248 266 344 317 258 225 216 347 183
177 180 160 170 175 171 162 161 148 130 106 111 111 128 118 119 107 94 88 92 61 55 36 359 4 345 348 355 352 338 331 331 331 325 326 323 321 320 322 322 322 319 315 313 314 313 313 314 311 313 313 312 311 310 309 306 299 291 286 282 279 276 277 279 280 279 279 277 272 266 261 258 258 246 48 337 284 243 228 100 93 83 37 356 15 102 70
168 98 135 155 29 48 89 137 138 133 135 137 150 142 131 93 52 36 358 265 216 298 340 1 313 337 341 345 349 337 338 339 330 325 323 318 318 318 321 317 315 317 313 310 308 311 313 315 315 313 309 307 306 306 305 301 298 292 288 283 277 272 270 268 269 272 275 278 277 277 270 262 251 250 230 188 254 288 308 325 175 188 131 146 5 1 105
72 93 136 88 33 84 103 117 132 145 147 186 135 91 71 32 34 270 284 317 316 299 288 273 297 322 333 336 344 338 337 339 329 326 324 319 314 314 313 313 313 313 314 315 315 313 313 311 309 309 307 305 307 308 307 303 298 292 284 279 273 268 266 267 264 259 264 268 269 266 264 268 264 251 247 226 180 152 270 262 246 220 192 183 163 152 278
93 91 110 88 90 92 89 108 101 96 110 12 360 30 320 281 229 308 291 283 290 297 294 300 320 350 308 333 322 318 322 325 331 336 321 310 307 308 307 308 307 310 312 311 308 307 307 309 310 311 310 310 311 307 305 303 298 290 284 279 275 270 266 265 264 262 260 263 265 265 262 258 258 252 244 242 228 192 150 93 295 255 232 207 187 183 179
90 107 105 98 90 86 105 123 144 127 133 175 171 160 129 344 6 299 273 293 290 265 274 306 296 300 323 302 312 319 316 316 329 321 309 315 312 307 302 305 310 309 307 306 304 305 309 315 313 310 311 314 315 309 305 300 295 288 283 278 273 268 264 260 259 259 257 255 259 264 260 256 256 252 243 241 240 219 177 173 161 166 200 215 200 171 173
102 114 132 132 126 110 162 308 30 121 126 135 292 296 312 132 143 246 286 263 279 308 318 291 291 297 299 306 305 306 307 311 312 313 318 311 307 306 305 299 304 307 304 303 305 307 307 303 310 318 320 322 318 310 304 300 294 289 281 277 271 265 257 255 256 255 253 253 255 260 264 260 251 251 250 242 240 232 218 187 179 186 192 174 155 185 192
131 132 79 287 268 134 146 164 154 165 156 217 216 262 238 249 271 260 249 247 226 234 242 267 286 295 296 300 308 306 307 309 318 317 314 311 308 304 297 303 307 307 305 306 308 307 306 320 327 327 324 322 320 312 303 298 292 286 282 277 272 266 263 251 242 243 244 246 248 252 257 258 259 263 253 243 235 236 228 215 198 180 175 166 145 78 73
155 142 115 59 58 68 77 121 176 196 201 243 279 271 234 243 236 246 253 253 268 275 282 284 288 288 295 299 304 304 303 311 314 317 312 310 309 304 311 313 311 305 303 305 304 313 324 330 332 331 319 310 309 317 311 302 295 288 283 278 271 266 260 256 251 246 242 239 239 244 251 260 267 259 255 243 234 232 231 217 207 193 157 134 127 115 100
170 160 159 140 136 160 179 193 191 211 240 224 231 230 229 237 245 233 262 258 269 288 295 296 291 295 300 299 298 309 314 314 314 309 311 309 311 317 317 317 309 303 300 315 326 327 318 324 328 316 311 315 324 324 320 316 306 300 293 289 286 279 270 262 255 247 241 238 234 233 244 249 255 259 248 236 231 228 224 218 197 171 158 150 152 156 145
167 169 166 158 179 212 233 229 230 240 238 221 223 233 225 233 253 276 274 293 286 287 296 298 301 300 300 305 325 330 327 322 306 301 301 308 309 306 310 311 304 304 312 308 310 307 303 304 308 305 310 313 328 328 324 318 314 308 304 304 308 301 284 263 243 239 233 231 231 229 231 234 243 248 249 240 225 223 223 220 196 186 178 159 147 130 125
159 165 177 192 208 228 232 240 245 245 235 225 222 227 232 233 235 247 269 283 302 305 304 308 306 314 339 353 343 322 306 299 290 287 294 293 291 286 295 299 285 279 278 279 276 281 296 305 306 313 317 322 330 329 329 325 321 317 318 324 323 324 305 280 245 216 210 213 220 227 231 235 237 234 236 238 228 221 218 213 199 184 173 165 136 126 128
172 182 204 213 223 234 246 243 248 236 227 219 222 235 236 237 246 261 281 293 297 307 310 314 322 16 21 360 303 299 299 296 285 272 270 286 292 289 291 296 283 272 266 264 277 294 303 307 311 319 322 327 333 337 341 336 330 321 326 330 335 328 323 322 244 187 187 199 209 220 239 237 240 234 225 217 222 222 217 206 190 172 161 142 119 113 130
215 294 2 24 302 294 290 263 232 225 214 217 215 220 231 235 248 266 274 294 309 309 324 319 90 99 90 242 288 295 319 319 319 329 335 315 304 309 307 297 290 279 266 274 306 325 321 321 323 329 325 323 332 346 351 347 334 326 332 340 344 344 349 5 81 185 192 200 209 211 248 266 245 233 217 204 216 218 208 203 184 155 154 126 115 115 119
166 107 97 81 262 278 285 282 245 212 204 202 212 215 217 234 255 277 345 308 302 321 330 155 135 134 176 226 264 293 330 315 303 296 297 304 316 308 297 308 309 301 294 284 6 350 335 321 340 334 324 315 338 354 6 352 338 331 345 344 359 3 5 10 31 153 198 207 206 205 220 267 261 243 230 215 204 202 189 175 137 131 128 118 113 113 120
160 147 165 184 218 232 242 251 231 196 200 189 182 238 225 239 265 284 273 275 316 314 55 154 150 161 205 259 276 296 319 308 290 289 296 307 303 301 308 306 307 310 318 334 22 357 336 335 354 333 314 308 343 2 14 355 335 348 357 353 0 8 17 19 23 39 46 148 174 199 205 243 283 246 223 227 208 194 169 144 132 120 118 123 124 124 129
179 170 153 175 189 219 212 214 220 199 186 183 191 208 227 236 255 280 290 282 282 311 202 167 168 190 240 264 272 257 268 284 308 322 322 319 311 308 299 282 296 336 341 3 359 347 329 340 339 319 304 348 359 4 17 350 340 348 9 6 17 19 18 23 23 38 49 68 101 121 145 160 168 161 198 213 183 168 155 149 124 118 117 120 123 127 126
184 185 166 160 182 200 202 191 191 202 205 193 215 234 246 270 270 283 290 294 284 239 184 182 192 194 208 241 257 241 250 276 289 303 306 298 296 290 270 268 353 5 7 356 331 325 329 333 322 313 329 356 355 2 10 347 325 329 25 14 18 21 29 33 31 30 34 49 69 110 129 144 155 160 168 175 160 150 149 132 117 119 121 122 123 121 116
191 197 195 182 191 202 201 189 191 214 217 216 216 225 234 252 290 289 275 270 259 186 190 198 198 208 210 230 260 253 228 234 249 271 278 282 268 267 296 15 28 23 5 333 317 311 332 335 319 313 338 356 345 355 7 348 321 7 28 32 26 27 24 36 38 44 42 46 56 79 100 113 129 135 138 130 129 123 111 100 109 116 118 120 123 124 122
206 203 201 198 214 232 219 207 204 210 212 222 238 235 224 230 257 281 283 272 194 187 225 196 202 218 227 227 235 245 230 210 210 216 247 272 285 272 221 149 35 30 10 332 319 330 329 305 308 342 345 349 356 354 353 332 308 23 31 33 35 35 34 35 41 44 44 46 58 69 79 78 76 79 87 98 111 114 123 123 123 122 122 127 128 111 87
226 224 208 204 216 236 252 230 215 212 214 213 216 224 226 248 279 288 284 290 226 219 243 231 228 234 245 245 235 237 238 254 247 237 245 260 257 285 308 56 29 12 11 347 330 311 302 320 349 340 359 339 3 2 340 325 353 43 37 39 37 39 39 37 41 42 46 40 45 61 75 82 78 71 65 72 79 89 94 100 112 121 124 128 127 112 100
232 225 214 211 222 228 240 239 228 220 214 213 214 223 229 238 265 282 302 292 268 243 246 232 280 317 308 293 256 248 240 242 246 257 275 320 348 330 327 54 10 21 6 330 306 296 332 357 3 8 360 339 338 354 329 303 7 36 47 45 46 42 41 39 42 42 45 49 50 51 52 62 71 81 89 89 86 87 94 99 100 101 106 99 90 86 86
232 222 216 220 229 230 232 235 230 232 225 217 213 215 221 227 250 255 238 226 250 247 238 235 164 199 241 247 242 236 235 232 250 255 238 168 49 7 348 12 355 36 5 329 321 338 0 7 7 15 346 331 326 323 304 327 31 33 49 55 54 51 49 46 45 45 45 50 53 54 56 60 65 70 70 76 83 86 86 84 85 82 78 84 87 86 85
229 219 215 216 224 226 227 239 239 231 230 225 215 214 217 221 235 247 234 219 213 232 254 231 220 225 233 245 253 242 218 226 235 226 242 178 165 144 47 11 3 29 30 335 333 360 15 9 16 348 329 323 324 322 332 32 24 40 42 49 56 59 58 57 53 50 49 48 47 51 53 57 63 65 69 72 75 75 75 74 71 72 70 69 76 89 103
230 220 219 218 213 212 218 234 241 233 232 234 222 212 215 225 230 235 239 216 214 206 227 243 235 229 227 227 241 256 296 305 299 291 268 248 177 108 74 7 18 355 6 319 313 13 33 11 348 329 323 324 326 314 357 35 37 41 42 46 45 50 60 62 65 63 60 60 67 64 58 54 57 63 69 69 73 76 76 78 76 73 74 81 93 108 118
240 225 221 217 209 207 212 222 230 229 228 221 220 214 217 227 232 229 227 230 212 203 212 223 231 225 224 224 219 231 231 237 207 296 349 359 21 48 52 14 19 10 314 294 6 16 39 25 340 330 328 333 324 310 44 31 42 46 49 52 56 54 55 60 60 58 58 64 65 69 73 70 65 64 68 73 75 78 80 84 87 85 87 89 94 102 111
242 226 216 216 213 207 198 202 209 217 221 224 225 223 212 216 223 229 219 216 222 210 201 201 208 215 209 215 223 214 206 192 170 174 170 115 117 111 117 189 155 355 318 356 29 23 15 353 344 329 326 326 313 9 37 45 45 47 47 51 56 64 62 62 62 73 74 74 83 84 77 80 87 91 92 90 87 88 91 91 93 95 97 100 103 102 106
255 235 219 220 228 211 191 186 190 205 217 228 233 236 227 219 217 222 223 211 211 213 211 207 201 189 197 205 216 247 278 270 211 152 166 163 125 115 145 47 32 3 304 216 172 97 49 339 325 322 330 314 323 51 41 46 47 51 52 52 50 53 54 62 68 79 81 77 78 76 79 83 81 79 78 79 83 85 89 94 101 104 107 107 107 107 108
252 249 214 203 218 214 200 197 204 210 220 225 231 234 227 224 225 225 223 218 220 220 219 212 207 192 186 193 215 220 209 242 306 45 121 156 147 152 115 130 188 247 268 354 28 70 59 344 327 331 312 304 33 53 56 59 55 55 53 54 56 51 51 50 53 58 71 76 74 74 75 74 75 78 82 82 83 82 81 80 81 86 92 93 91 89 89
255 223 206 193 180 194 203 212 218 227 229 226 232 233 223 220 229 226 222 222 224 224 230 210 201 192 195 182 191 203 199 194 197 193 148 130 134 139 145 110 72 13 332 337 78 92 128 228 258 341 332 56 60 55 61 61 63 60 69 69 70 71 70 74 75 77 78 77 79 81 79 77 77 78 77 77 77 79 81 84 86 82 69 77 87 86 87
235 227 228 213 207 204 203 213 223 236 241 229 230 220 214 223 233 234 232 223 220 216 228 221 214 201 192 186 184 186 181 185 184 183 200 166 173 119 117 137 144 180 187 249 253 291 51 58 46 10 52 61 62 60 58 67 75 73 64 66 66 76 83 76 68 66 65 75 85 83 80 81 80 82 82 84 85 85 83 84 84 84 84 86 89 93 95
243 246 246 230 219 205 213 222 230 234 237 233 227 208 212 227 234 230 227 213 227 226 225 228 221 204 201 191 185 182 175 180 173 174 203 194 186 179 152 218 193 161 210 207 132 138 87 92 85 9 355 78 92 99 98 86 84 81 78 77 77 72 63 70 82 83 86 88 84 89 93 92 92 90 88 87 89 90 91 93 95 98 101 99 99 100 103